Track RADIO ROSTO now! 10-day predictions RADIO ROSTO is classified as:
1 23439U 94085A 25134.45805535 -.00000024 00000-0 53136-3 0 9995 2 23439 64.8164 228.0475 0145579 79.4814 282.2474 11.27581200250940